Location: Miles
(41.4492°N, 81.6087°W)
Time: 07:03:24
(UTC+00:00)

Vanguard 1 Rocket - Pass Details

Date: 18 September 2024
Orbit: 650 x 4218 km, 34.3° (Epoch: 05 October)

Event Time Altitude Azimuth Distance (km) Brightness Sun altitude
Rises 13:51:43 0° 282° (WNW) 7,199 11.4 28.5°
Reaches altitude 10° 13:56:14 10° 277° (W) 6,539 11.3 29.3°
Maximum altitude 14:18:03 49° 212° (SSW) 4,909 11.5 32.8°
Drops below altitude 10° 14:40:46 10° 146° (SE) 6,712 13.0 36.3°
Sets 14:45:33 0° 140° (SE) 7,385 13.0 37.0°
